Location: New Frontier Mobile Home Park
(32.8448°N, 116.9675°W)
Time: 23:12:05
(UTC+00:00)

Cosmos 2221 - Pass Details

Date: 14 July 2020
Orbit: 592 x 616 km, 82.5° (Epoch: 05 August)

Event Time Altitude Azimuth Distance (km) Brightness Sun altitude
Rises 05:05:36 0° 353° (N) 2,870 6.8 -22.4°
Reaches altitude 10° 05:07:50 10° 353° (N) 1,958 5.9 -22.7°
Maximum altitude 05:12:10 89° 272° (W) 607 2.4 -23.3°
Enters shadow 05:12:21 82° 180° (S) 612 2.3 -23.3°
